Temp
15 15 15 15 15 15 14 14 13 13 13 12 12 11 11 11 10 10 9 9 9 8 8 8 7 7 7 7 7 6 6 6 3 5 6 6 6 6 6 6 6 6 6
15 15 15 14 14 14 13 13 13 12 12 12 11 11 10 10 9 9 9 8 8 8 7 7 7 7 6 6 5 5 5 5 4 3 4 5 5 6 5 5 6 6 5
14 14 13 13 13 12 12 12 11 11 11 10 10 10 10 9 9 8 8 8 7 7 7 6 6 5 5 5 4 4 5 5 5 4 3 4 4 4 4 4 4 4 4
13 13 12 12 12 11 11 11 10 10 10 10 9 9 9 8 8 8 8 7 7 7 6 6 5 4 4 4 4 4 4 4 4 4 3 3 3 3 2 2 2 2 3
12 12 11 11 11 10 10 10 10 9 9 9 8 8 8 8 8 7 7 7 6 6 6 5 5 4 4 4 4 4 4 4 3 2 2 2 3 2 2 2 2 2 3
12 11 11 10 10 10 9 9 9 9 8 8 8 8 7 7 7 6 6 6 6 5 5 5 5 3 3 3 3 3 4 4 3 2 2 2 2 2 2 2 2 2 2
11 10 10 10 9 9 9 8 8 7 7 7 7 6 6 6 5 6 6 6 5 5 4 4 4 3 3 3 2 2 3 3 4 3 3 2 2 3 3 2 2 2 2
10 10 9 9 9 8 8 7 7 6 6 6 6 5 5 5 4 5 5 5 4 4 3 3 3 3 3 2 2 2 3 3 3 2 2 2 3 3 3 3 2 2 2
9 9 8 8 8 7 7 7 6 6 6 5 5 5 4 4 4 4 4 4 3 3 3 2 2 2 2 2 3 3 2 2 2 2 3 3 3 3 3 3 2 2 2
8 8 8 7 7 7 6 6 6 5 5 4 4 4 3 3 2 2 2 3 3 2 2 1 1 1 2 3 3 3 3 2 2 2 1 2 1 2 2 2 2 2 2
8 7 7 7 7 6 6 5 5 4 4 4 3 3 2 2 1 1 2 2 2 1 1 1 1 1 2 3 3 2 1 2 2 1 1 1 1 1 1 1 1 1 0
7 7 6 6 5 5 5 4 4 4 3 2 2 1 1 1 1 0 1 2 2 2 1 1 1 1 2 3 3 2 3 3 1 0 0 0 0 0 0 0 0 0 1
6 6 5 5 4 4 4 3 3 2 2 1 0 0 -0 0 -0 -0 0 1 1 1 1 1 2 2 1 1 0 1 2 0 0 -0 -0 -0 -0 -0 -0 -0 -0 0 0
5 4 4 3 3 3 3 2 2 1 1 0 0 -0 -0 -0 -1 -0 -0 -0 -0 -0 -0 1 0 -0 -0 -0 -1 -1 -1 -1 -1 -1 -1 -1 -1 -1 -1 -0 -0 -0 -0
3 3 3 2 2 2 2 1 1 0 0 0 -0 -0 -1 -1 -1 -0 0 -0 0 0 1 0 -1 -1 -1 -2 -2 -2 -2 -2 -2 -1 -1 -1 -1 -1 -1 -1 -1 -0 -0
3 2 2 2 1 1 1 1 0 -1 -1 -1 -0 -0 -0 -0 -0 -0 -0 -0 0 1 -0 -1 -1 -1 -2 -2 -2 -2 -2 -2 -2 -2 -2 -2 -2 -2 -2 -1 -1 -1 -1
2 1 1 1 1 0 -0 -1 -1 -1 -2 -2 -2 -2 -1 -1 -1 -1 -1 -0 -1 -1 -2 -2 -2 -3 -2 -2 -2 -2 -2 -2 -2 -2 -2 -2 -2 -3 -2 -1 -1 -1 -1
1 1 1 1 0 -0 -0 -1 -2 -2 -3 -3 -3 -3 -2 -2 -1 -1 -1 -1 -2 -2 -2 -3 -3 -2 -2 -2 -3 -3 -2 -2 -2 -2 -2 -3 -3 -3 -2 -2 -1 -1 -1
1 1 0 0 -0 -1 -1 -2 -3 -3 -3 -3 -3 -3 -3 -3 -2 -2 -2 -3 -3 -3 -3 -3 -3 -3 -3 -3 -3 -3 -3 -3 -3 -3 -2 -2 -3 -3 -2 -2 -1 -1 -0
0 0 -0 -0 -1 -2 -2 -3 -3 -3 -3 -4 -4 -4 -3 -3 -3 -3 -3 -4 -3 -3 -3 -3 -3 -3 -3 -3 -3 -3 -3 -3 -3 -3 -2 -3 -3 -3 -2 -2 -2 -1 -1
-0 -0 -1 -1 -2 -3 -3 -3 -4 -4 -4 -4 -4 -3 -2 -2 -3 -4 -4 -3 -3 -3 -3 -3 -3 -3 -3 -3 -3 -3 -3 -3 -3 -3 -3 -3 -3 -2 -2 -2 -2 -2 -1
-0 -1 -1 -2 -3 -3 -3 -3 -3 -3 -4 -4 -4 -4 -3 -3 -3 -3 -3 -3 -3 -3 -3 -3 -3 -3 -3 -3 -3 -3 -3 -2 -2 -3 -2 -3 -3 -3 -2 -2 -2 -2 -1
-1 -1 -2 -2 -3 -3 -3 -3 -3 -4 -4 -4 -4 -4 -3 -3 -3 -3 -3 -3 -3 -3 -3 -3 -3 -3 -2 -3 -3 -3 -3 -2 -2 -2 -2 -3 -3 -3 -2 -2 -2 -2 -1
-1 -1 -2 -3 -3 -3 -3 -3 -3 -3 -3 -3 -4 -4 -4 -3 -3 -3 -3 -3 -3 -3 -3 -2 -2 -2 -2 -2 -3 -3 -3 -3 -3 -3 -3 -3 -3 -2 -2 -2 -2 -2 -1
-1 -2 -2 -3 -3 -3 -3 -3 -3 -3 -3 -4 -4 -4 -4 -3 -3 -3 -3 -3 -3 -2 -2 -2 -1 -1 -2 -2 -2 -3 -3 -3 -3 -3 -3 -3 -3 -2 -2 -2 -2 -2 -2
-1 -2 -2 -3 -3 -3 -3 -3 -3 -3 -4 -4 -4 -4 -3 -3 -3 -3 -3 -3 -2 -1 -1 -1 -1 -1 -2 -2 -2 -3 -3 -3 -3 -3 -3 -2 -2 -2 -2 -2 -2 -1 -1
Height
784 788 790 794 797 800 804 808 812 816 820 823 825 828 828 829 830 831 832 833 834 835 835 834 834 833 833 833 832 831 830 829 825 822 822 821 820 820 820 818 817 816 815
787 790 794 798 802 805 809 813 817 819 821 823 825 827 828 828 829 829 831 832 833 832 832 831 830 830 829 829 828 827 825 824 821 817 816 815 814 813 813 811 809 809 807
792 795 800 804 807 810 813 816 819 820 822 824 825 826 826 827 828 829 830 830 829 829 828 827 827 826 825 824 823 822 819 818 815 812 811 810 808 807 806 804 803 801 800
798 801 805 808 810 813 816 818 820 822 823 823 824 824 825 826 827 827 826 825 825 824 824 824 823 822 821 819 817 815 813 811 810 807 805 803 802 801 801 799 796 794 791
804 806 809 812 814 816 818 819 820 821 822 822 823 823 823 823 823 822 822 821 820 820 820 819 818 817 816 815 812 809 807 805 804 802 800 798 797 797 796 794 791 789 786
808 810 813 815 817 818 819 820 820 820 821 821 821 821 821 820 820 820 819 817 816 815 814 813 812 811 810 808 806 804 802 799 798 795 793 792 792 790 789 788 786 785 782
811 813 814 816 817 818 819 819 820 820 820 820 820 819 819 818 817 816 816 813 811 810 809 807 806 805 804 802 799 797 795 793 791 789 787 786 785 783 782 781 780 779 776
812 814 815 816 818 818 819 819 819 819 819 818 817 816 815 814 813 811 811 808 807 805 804 802 801 798 797 795 792 789 786 785 784 782 780 778 777 776 775 774 771 771 769
814 815 817 818 818 819 819 819 818 818 817 816 815 813 811 810 808 807 807 805 802 800 798 797 795 792 790 788 785 782 780 778 777 775 773 772 770 769 768 767 766 766 763
817 817 818 818 818 817 817 817 817 816 814 813 812 811 809 806 805 804 803 800 797 794 792 790 789 787 785 782 779 776 773 771 769 767 766 764 764 763 763 763 762 761 760
817 818 818 817 817 816 816 816 815 813 812 810 809 809 807 804 801 799 797 795 792 789 787 784 783 782 779 776 772 768 766 765 763 761 760 759 759 758 756 756 755 755 753
817 817 817 817 816 816 815 814 812 811 810 808 807 806 804 801 798 795 792 790 787 785 782 779 777 774 772 768 765 763 761 759 756 756 754 753 752 751 750 750 749 749 748
817 817 817 817 817 815 814 812 811 809 807 806 805 802 799 796 794 791 788 785 782 780 777 773 770 767 764 761 760 758 755 753 752 750 748 747 747 746 745 744 743 742 741
817 817 817 817 816 814 813 812 810 808 806 804 802 798 794 791 789 786 783 779 776 774 770 766 763 761 760 757 754 752 750 748 747 745 743 742 741 740 739 738 737 736 735
818 818 818 817 816 814 812 811 810 808 805 802 798 795 792 788 785 782 779 775 771 768 764 760 757 755 753 750 748 746 745 743 742 740 738 737 736 735 733 732 731 730 730
818 818 818 817 815 812 810 808 807 806 802 799 795 792 789 785 781 778 774 770 766 763 759 756 753 750 748 746 743 741 740 738 736 735 733 732 730 729 728 726 726 725 725
818 818 817 816 814 811 808 806 803 801 799 795 792 788 785 781 777 774 770 766 762 759 756 752 748 746 743 741 739 736 734 733 731 729 727 726 724 723 722 721 720 719 719
818 818 816 815 813 810 807 805 802 799 794 790 788 785 782 778 774 770 765 761 757 754 751 748 744 741 737 735 733 731 729 727 725 723 721 720 719 718 717 716 715 714 714
818 817 816 814 812 809 807 805 802 798 794 789 785 781 778 774 770 766 762 758 754 750 746 742 738 735 731 728 726 724 722 720 718 716 714 714 713 713 711 711 710 709 708
817 816 815 813 810 808 806 803 800 797 792 788 783 779 774 769 765 761 757 753 749 744 740 735 731 727 724 721 718 716 714 713 711 710 708 708 707 707 705 705 704 704 703
816 815 814 812 810 808 805 802 799 795 791 786 782 777 773 768 763 758 753 749 744 739 734 729 724 720 716 713 710 708 706 705 704 703 702 702 702 701 700 699 699 698 697
815 815 814 812 810 808 805 802 798 794 789 785 780 775 771 766 760 755 749 744 738 733 727 721 716 711 707 703 701 699 698 697 696 696 696 696 696 695 695 694 693 692 691
815 814 814 812 810 806 804 801 796 792 788 783 778 773 767 762 756 751 745 739 732 726 719 714 708 702 698 694 691 690 689 689 689 689 690 690 690 690 689 689 688 686 685
815 814 814 811 808 806 803 800 797 792 787 782 776 770 765 759 753 746 740 733 727 720 714 708 702 696 691 687 684 683 683 683 684 684 685 685 685 685 684 683 681 680 678
814 814 813 810 808 805 802 799 797 791 786 780 774 768 762 756 749 742 736 729 723 717 710 705 699 693 688 684 681 680 679 679 679 680 681 681 680 680 679 677 675 672 669
813 813 812 810 807 805 802 799 794 790 785 780 773 767 760 754 747 740 733 727 721 716 710 705 700 695 690 686 683 680 678 677 677 677 677 676 675 674 672 669 666 663 660
Wind_Speed
23 24 24 23 22 21 21 20 21 18 15 11 9 8 6 4 3 3 2 2 4 6 8 9 8 9 11 13 15 16 18 19 14 16 23 26 26 26 26 24 24 23 24
24 25 24 23 22 21 20 16 12 11 9 6 5 4 3 3 4 4 5 6 9 11 11 12 14 15 15 14 15 17 19 20 23 19 22 25 27 26 26 26 26 24 23
25 26 25 24 22 19 16 13 10 8 6 5 4 4 4 5 6 6 7 9 11 13 13 14 12 13 17 18 20 24 26 26 26 27 20 19 25 27 26 27 28 29 31
26 24 23 20 18 15 12 10 8 6 5 4 3 3 3 4 6 8 9 9 12 13 11 14 14 16 18 21 22 24 23 21 24 22 22 22 26 25 20 20 23 24 25
23 21 18 15 12 10 8 7 5 3 2 1 2 4 6 8 8 7 8 11 13 14 15 16 18 20 18 22 24 24 25 26 20 20 18 18 17 16 15 16 16 20 25
17 15 12 11 8 7 5 3 2 1 2 4 5 6 6 6 7 8 11 15 16 16 17 17 21 18 18 18 21 22 23 24 21 19 16 13 17 20 19 19 18 15 8
13 11 10 8 8 5 3 3 2 2 3 3 4 6 8 9 11 13 15 17 16 13 13 16 16 20 23 27 24 24 22 21 23 25 21 18 18 27 24 23 23 20 23
11 10 8 7 5 4 2 2 2 3 5 7 9 10 10 12 12 14 14 15 11 12 14 16 22 26 23 22 24 25 26 22 23 24 24 25 26 26 25 24 23 25 26
11 9 7 5 3 1 1 2 5 8 9 9 10 9 11 11 10 10 13 15 16 18 18 21 20 21 22 22 23 24 20 23 22 21 23 24 24 22 22 17 14 14 12
8 5 2 1 1 2 2 5 7 9 10 9 9 8 7 8 10 13 15 18 19 17 20 18 21 20 21 20 23 24 22 19 18 21 21 21 18 15 17 18 20 17 15
4 2 1 0 1 1 2 5 8 7 7 7 8 8 11 15 19 18 17 17 17 19 18 20 18 19 22 24 24 22 15 20 19 16 15 15 16 18 19 18 18 19 16
2 3 2 1 1 2 5 5 6 6 7 9 9 13 16 19 18 16 16 17 18 18 18 21 25 24 23 26 24 19 23 24 12 13 14 16 16 18 17 16 16 17 18
5 5 4 3 4 6 7 6 4 7 7 7 12 17 22 22 18 17 17 17 18 20 23 23 24 25 24 19 19 20 20 17 17 15 17 17 17 18 15 17 18 18 18
6 5 5 6 8 7 5 5 8 4 7 11 15 18 21 19 19 21 21 21 22 21 22 24 20 14 20 17 18 19 18 17 17 17 16 17 17 18 17 17 19 17 16
5 5 7 7 8 9 7 6 8 8 11 16 17 15 17 17 20 21 21 22 21 21 24 19 18 18 18 17 17 17 17 16 17 18 17 18 18 16 18 17 17 16 14
3 6 5 8 11 10 9 10 9 12 13 13 14 17 19 21 22 21 22 21 22 23 20 18 21 19 18 17 17 16 16 17 18 18 17 17 19 19 18 17 16 16 14
4 4 6 9 10 10 11 9 14 19 14 13 15 18 18 19 19 19 21 22 19 20 19 21 21 19 16 17 17 18 18 18 20 20 19 19 19 17 15 15 14 15 14
4 4 7 8 11 11 10 12 14 16 18 19 18 17 17 17 19 21 21 21 23 20 20 20 19 20 19 18 19 20 20 19 19 19 19 16 15 14 15 16 15 14 15
5 6 7 10 10 10 10 14 16 16 18 21 23 22 20 19 21 19 20 20 20 20 20 20 22 23 23 23 22 22 21 20 20 19 19 15 16 17 16 16 15 16 17
5 6 8 9 8 9 13 15 16 18 21 21 22 22 26 23 18 23 24 22 21 22 24 24 25 25 25 25 24 23 22 20 19 20 18 17 17 18 17 16 15 14 15
6 7 7 7 7 13 13 14 18 20 21 21 23 25 23 23 23 24 24 24 25 25 26 26 27 27 27 26 25 24 23 22 20 21 19 18 17 17 18 16 15 16 17
6 7 7 7 11 11 13 16 21 21 22 21 24 25 23 24 24 25 25 26 28 29 30 30 30 30 30 29 27 25 24 22 22 21 20 17 17 17 17 16 15 16 17
6 6 6 10 10 11 15 17 23 23 22 21 23 23 24 25 26 26 28 30 31 32 32 32 32 32 31 30 28 26 25 23 23 21 19 16 17 16 16 15 16 17 17
5 5 7 9 10 13 16 16 20 21 19 22 24 24 25 27 28 29 30 32 32 32 32 32 31 31 29 27 21 18 17 16 16 17 15 16 16 16 16 18 18 19 21
5 5 7 10 12 15 17 16 18 22 23 24 25 27 29 29 29 31 31 31 31 32 31 29 27 25 20 16 11 9 8 9 11 11 12 13 16 17 19 20 21 23 25
4 5 7 9 11 14 17 18 18 22 24 25 28 29 30 30 31 31 31 31 30 27 26 24 25 21 19 16 13 10 6 4 5 7 11 14 17 20 21 24 27 26 27
Wind_Direction
136 138 139 143 147 147 146 143 144 146 150 154 156 163 172 199 217 240 243 270 288 294 296 300 300 301 299 296 293 291 288 284 268 287 289 297 294 295 296 293 291 286 283
129 127 124 125 126 126 126 129 132 136 138 148 170 197 206 208 234 246 260 276 291 296 296 295 298 296 294 296 299 300 298 296 291 282 289 293 292 294 292 293 293 281 273
122 119 118 119 119 118 119 124 131 134 146 167 183 198 223 233 233 243 268 286 293 294 289 287 288 294 299 300 302 300 297 294 290 285 282 293 296 296 290 289 286 282 282
114 113 112 113 115 116 116 120 125 126 131 140 172 201 211 224 256 277 283 284 289 282 275 284 293 302 300 306 304 299 296 294 295 278 281 282 287 293 293 292 292 298 295
113 113 112 114 114 114 110 102 99 97 80 8 306 285 281 284 286 286 291 294 292 286 285 283 295 298 293 297 297 293 290 286 285 284 280 281 280 279 267 277 274 283 288
119 117 119 115 107 100 98 96 88 28 323 307 304 297 287 285 288 292 291 294 295 294 288 285 294 301 304 298 297 291 285 283 278 273 270 272 266 260 262 266 263 267 283
121 121 119 115 114 112 106 95 69 31 359 339 325 317 313 312 309 303 297 294 294 291 290 301 300 301 296 296 293 290 284 281 282 285 286 271 265 273 281 268 255 256 261
120 123 122 125 119 112 96 51 12 347 334 327 320 316 313 315 311 304 298 294 299 304 303 301 298 296 295 295 292 290 292 294 284 279 276 280 281 280 278 277 266 270 262
114 113 111 115 119 89 23 360 335 325 319 316 314 307 309 311 312 313 303 301 302 300 297 297 295 295 299 292 284 283 279 283 282 278 278 277 277 276 279 287 280 266 250
105 101 97 89 39 14 349 328 323 315 309 309 312 310 311 319 315 317 305 298 301 303 303 296 295 292 293 293 295 291 292 289 294 285 284 282 277 278 283 277 275 268 255
80 50 29 280 203 269 321 323 318 311 306 313 315 311 313 319 321 316 301 292 302 300 295 299 299 296 293 291 287 292 287 294 293 279 280 291 292 282 281 278 272 262 275
34 342 323 136 45 341 332 336 326 322 326 326 316 313 320 324 324 315 305 301 300 302 297 294 300 296 289 292 297 300 299 298 284 290 282 281 280 283 279 280 275 268 277
75 73 73 63 13 352 340 337 338 333 331 332 326 320 319 321 317 317 307 302 301 301 298 296 295 295 295 298 303 298 300 299 299 286 284 285 283 290 284 279 274 273 278
88 76 42 13 350 350 3 354 339 336 338 329 321 311 311 309 313 318 313 311 309 298 299 301 295 312 309 301 297 297 293 290 283 279 284 289 284 286 282 281 278 270 278
73 40 13 3 359 351 345 343 341 329 325 321 317 315 310 306 309 308 309 307 304 302 300 290 302 313 309 304 302 300 295 293 288 289 289 289 286 283 285 285 274 264 258
44 14 13 355 345 344 341 328 332 335 329 324 318 316 314 308 307 310 311 310 309 309 310 312 306 302 293 291 289 287 287 289 289 288 288 286 284 283 281 280 265 249 251
30 6 350 350 354 350 346 340 336 338 336 331 326 322 316 314 315 315 313 313 315 313 307 303 298 291 286 294 288 286 286 285 292 284 281 283 286 280 271 270 261 250 247
28 1 347 348 348 348 345 336 336 335 332 331 333 328 324 321 320 317 318 319 318 317 311 302 291 293 281 283 286 284 286 285 284 283 273 275 275 268 265 264 260 254 256
13 15 3 353 354 351 354 347 341 336 330 325 330 335 334 326 322 322 321 318 309 302 296 293 287 286 283 278 276 278 278 279 278 285 263 269 275 274 266 265 263 266 268
32 23 4 357 4 6 354 350 345 336 329 325 321 319 328 324 328 325 322 317 308 299 297 293 291 288 284 280 279 274 271 272 275 278 268 271 272 270 265 263 260 261 263
38 27 9 10 14 357 358 353 344 338 329 320 320 328 330 331 321 314 309 306 303 300 299 298 296 292 287 282 279 276 270 267 270 269 268 265 269 267 271 266 265 263 265
44 31 19 22 1 8 359 355 349 345 342 329 324 325 331 325 318 314 311 311 310 308 305 300 296 293 288 281 276 271 270 266 262 272 262 268 263 268 275 268 268 265 267
51 32 30 9 17 4 360 354 351 349 339 334 327 327 324 320 319 317 316 316 315 313 312 307 303 301 302 297 292 280 269 266 266 273 266 265 269 268 273 267 268 269 268
50 39 19 17 16 3 3 352 350 349 338 330 328 326 324 324 321 319 320 320 320 320 321 320 319 319 320 320 314 300 288 285 281 277 272 265 268 273 272 271 268 267 268
53 40 19 12 5 4 358 350 346 339 337 335 329 327 326 327 328 326 326 327 329 332 338 348 353 350 349 346 343 323 297 281 270 266 263 266 269 269 269 270 270 268 266
57 26 9 2 3 5 2 349 343 341 340 338 333 331 333 333 332 333 336 339 343 353 360 3 5 5 6 7 4 1 353 325 284 257 254 259 265 269 269 265 265 265 267